Weather History for Creil, France

Change the Weather History Date:

Tuesday, December 11, 2012

  Actual Average (LFPG) Record (LFPG)
Temperature  
Mean Temperature 30 °F -  
Max Temperature 37 °F 43 °F 59 °F (1997)
Min Temperature 21 °F 34 °F 26 °F (2005)
Degree Days  
Heating Degree Days 35    
Moisture  
Dew Point 29 °F    
Average Humidity 88    
Maximum Humidity 100    
Minimum Humidity 65    
Precipitation  
Precipitation 0.00 in - - ()
Sea Level Pressure  
Sea Level Pressure 30.31 in    
Wind  
Wind Speed 4 mph ()    
Max Wind Speed 9 mph    
Max Gust Speed -    
Visibility 5.8 miles    
Events      
Averages and records for this station are not official NWS values.
T = Trace of Precipitation, MM = Missing Value Source: Averaged Metar Reports

Daily Weather History Graph

Daily Weather History Graph

Search for Another Location

Airport:

Trip Planner

Search our weather history database for the weather conditions in past years. The results will help you decide how hot, cold, wet, or windy it might be!

Date:

Astronomy

Dec. 11, 2012 Rise Set
Actual Time 8:35 AM CET 4:51 PM CET
Civil Twilight 7:57 AM CET 5:28 PM CET
Nautical Twilight 7:17 AM CET 6:09 PM CET
Astronomical Twilight 6:38 AM CET 6:48 PM CET
Moon 6:05 AM CET (12/11) 3:21 PM CET (12/11)
Length of Visible Light 9h 31m
Length of Day
8h 16m
Waning Crescent, 5% of the Moon is Illuminated
Dec 11
Waning Crescent
Dec 13
New
Dec 20
First Quarter
Dec 28
Full
Jan 5
Last Quarter

Hourly Weather History & Observations

Time (CET) Temp. Windchill Dew Point Humidity Pressure Visibility Wind Dir Wind Speed Gust Speed Precip Events Conditions
12:00 AM 37.4 °F 33.8 °F 33.8 °F 87% 30.21 in 6.2 mi North 4.6 mph - N/A   Unknown
12:30 AM 37.4 °F 33.8 °F 33.8 °F 87% 30.21 in 6.2 mi NNW 4.6 mph - N/A   Unknown
1:00 AM 37.4 °F 33.8 °F 33.8 °F 87% 30.24 in 6.2 mi NNW 4.6 mph - N/A   Mostly Cloudy
1:30 AM 37.4 °F 32.8 °F 33.8 °F 87% 30.24 in 6.2 mi North 5.8 mph - N/A   Mostly Cloudy
2:00 AM 35.6 °F 31.7 °F 33.8 °F 93% 30.24 in 6.2 mi North 4.6 mph - N/A   Unknown
2:30 AM 35.6 °F 32.8 °F 33.8 °F 93% 30.24 in 6.2 mi North 3.5 mph - N/A   Unknown
3:00 AM 35.6 °F 30.7 °F 33.8 °F 93% 30.24 in 6.2 mi North 5.8 mph - N/A   Overcast
3:30 AM 35.6 °F 29.9 °F 33.8 °F 93% 30.27 in 6.2 mi North 6.9 mph - N/A   Mostly Cloudy
4:00 AM 33.8 °F 30.8 °F 30.2 °F 87% 30.27 in 6.2 mi NW 3.5 mph - N/A   Mostly Cloudy
4:30 AM 32.0 °F 28.7 °F 30.2 °F 93% 30.27 in 6.2 mi NW 3.5 mph - N/A   Unknown
5:00 AM 32.0 °F 28.7 °F 30.2 °F 93% 30.27 in 6.2 mi North 3.5 mph - N/A   Partly Cloudy
5:30 AM 32.0 °F - 30.2 °F 93% 30.27 in 6.2 mi Calm Calm - N/A   Mostly Cloudy
6:00 AM 32.0 °F - 32.0 °F 100% 30.27 in 6.2 mi NW 2.3 mph - N/A   Overcast
6:30 AM 32.0 °F 28.7 °F 30.2 °F 93% 30.27 in 6.2 mi NNW 3.5 mph - N/A   Unknown
7:00 AM 30.2 °F - 30.2 °F 100% 30.30 in 5.6 mi Calm Calm - N/A   Unknown
7:30 AM 30.2 °F - 30.2 °F 100% 30.30 in 5.0 mi NE 2.3 mph - N/A   Unknown
8:00 AM 30.2 °F - 30.2 °F 100% 30.30 in 5.6 mi Calm Calm - N/A   Unknown
8:30 AM 30.2 °F - 28.4 °F 93% 30.33 in 3.1 mi Calm Calm - N/A   Mist
9:00 AM 30.2 °F - 30.2 °F 100% 30.33 in - Calm Calm - N/A   Overcast
9:30 AM 30.2 °F 26.7 °F 30.2 °F 100% 30.33 in 1.6 mi WSW 3.5 mph - N/A   Mostly Cloudy
10:00 AM 32.0 °F 28.7 °F 32.0 °F 100% 30.33 in 1.6 mi West 3.5 mph - N/A   Mostly Cloudy
10:30 AM 33.8 °F 29.6 °F 32.0 °F 93% 30.33 in 3.1 mi WNW 4.6 mph - N/A   Mist
11:00 AM 33.8 °F 29.6 °F 32.0 °F 93% 30.33 in 5.6 mi WNW 4.6 mph - N/A   Mostly Cloudy
11:30 AM 35.6 °F 29.9 °F 32.0 °F 87% 30.36 in 6.2 mi WNW 6.9 mph - N/A   Mostly Cloudy
12:00 PM 35.6 °F 31.7 °F 32.0 °F 87% 30.36 in 6.2 mi NW 4.6 mph - N/A   Mostly Cloudy
12:30 PM 35.6 °F 29.9 °F 32.0 °F 87% 30.36 in 6.2 mi NNE 6.9 mph - N/A   Mostly Cloudy
1:00 PM 35.6 °F 29.9 °F 30.2 °F 81% 30.33 in 6.2 mi North 6.9 mph - N/A   Unknown
1:30 PM 37.4 °F 31.4 °F 30.2 °F 75% 30.33 in 6.2 mi NNE 8.1 mph - N/A   Unknown
2:00 PM 37.4 °F 32.1 °F 26.6 °F 65% 30.33 in 6.2 mi North 6.9 mph - N/A   Unknown
2:30 PM 37.4 °F 30.8 °F 28.4 °F 70% 30.33 in 6.2 mi North 9.2 mph - N/A   Unknown
3:00 PM 37.4 °F 30.8 °F 26.6 °F 65% 30.33 in 6.2 mi North 9.2 mph - N/A   Unknown
3:30 PM 35.6 °F 28.6 °F 24.8 °F 65% 30.33 in 6.2 mi NNE 9.2 mph - N/A   Unknown
4:00 PM 35.6 °F 29.2 °F 24.8 °F 65% 30.33 in 6.2 mi NNE 8.1 mph - N/A   Unknown
4:30 PM 33.8 °F 27.7 °F 24.8 °F 70% 30.33 in 6.2 mi NNE 6.9 mph - N/A   Unknown
5:00 PM 32.0 °F 27.5 °F 24.8 °F 75% 30.33 in 6.2 mi NNE 4.6 mph - N/A   Unknown
5:30 PM 30.2 °F 26.7 °F 24.8 °F 80% 30.33 in 6.2 mi NNE 3.5 mph - N/A   Unknown
6:00 PM 30.2 °F 26.7 °F 24.8 °F 80% 30.36 in 6.2 mi NE 3.5 mph - N/A   Unknown
6:30 PM 28.4 °F 24.6 °F 24.8 °F 86% 30.36 in 6.2 mi East 3.5 mph - N/A   Unknown
7:00 PM 26.6 °F 22.6 °F 23.0 °F 86% 30.36 in 6.2 mi East 3.5 mph - N/A   Unknown
7:30 PM 26.6 °F 22.6 °F 24.8 °F 93% 30.36 in 6.2 mi East 3.5 mph - N/A   Unknown
8:00 PM 24.8 °F - 23.0 °F 93% 30.36 in 6.2 mi Calm Calm - N/A   Unknown
8:30 PM 26.6 °F - 24.8 °F 93% 30.36 in 6.2 mi ESE 1.2 mph - N/A   Unknown
9:00 PM 24.8 °F - 23.0 °F 93% 30.36 in 6.2 mi Calm Calm - N/A   Unknown
9:30 PM 24.8 °F - 24.8 °F 100% 30.36 in 6.2 mi SSW 1.2 mph - N/A   Unknown
10:00 PM 23.0 °F - 23.0 °F 100% 30.36 in 5.6 mi Calm Calm - N/A   Unknown
10:30 PM 23.0 °F - 21.2 °F 93% 30.36 in 6.2 mi Variable 1.2 mph - N/A   Unknown
11:00 PM 23.0 °F - 23.0 °F 100% 30.36 in 6.2 mi East 2.3 mph - N/A   Unknown
11:30 PM 21.2 °F - 19.4 °F 93% 30.33 in - Calm Calm - N/A   Mist